星链-30070 (STARLINK-30070 )

导读 | 豆包AI

STARLINK-30070是美国太空探索技术公司SpaceX星链星座的一颗卫星,于2023年5月19日发射升空,归属星链互联网星座组网。星链计划旨在构建覆盖全球的低轨卫星互联网,为全球多地提供高速宽带网络服务,该卫星的发射进一步推进了星链星座的部署进程。

Basic Information
目录编号:
56707
目录名称:
STARLINK-30070
国际标识:
2023-067V
轨道中心:
EARTH
卫星名称:
星链-30070
卫星全名:
星链-30070 (STARLINK-30070 )
卫星状态:
在轨 (已飞行1077 天)
发射日期:
2023-05-19 UTC
国别 :
美国 (US)
星等 :
--
Orbit Information
数据来源 国际轨道数据
星历时间: 2026-04-30T07:32:56+0800
16小时前
查看轨道信息
半长轴: 6861.197km
偏心率: 0.0001453
轨道倾角: 43.004°
近地点辐角 260.526°
升交点赤经 341.459°
平近点角 99.543°
近地点: 482.063km
远地点: 484.057km
周期: 94.267分钟
每日圈数: 15.275765
Detailed Information
固有亮度:
5
最大亮度:
0.3
卫星平台:
Starlink v2.0 mini
覆盖范围:
全球
运营商:
太空探索技术公司
运营商所在国:
美国
制造商(研发单位):
太空探索技术公司
制造商所在国:
美国
使用方式:
暂无
Satellite Introduction
星链(Starlink)计划是由太空探索技术公司(SpaceX)提出的一个巨型低轨卫星互联网星座项目,计划在2019年至2024年间在太空搭建由约1.2万颗卫星组成的“星链”网络,其中1584颗将部署在地球上空550千米处的近地轨道,并从2020年开始工作。该卫星仍在工作。
2D Orbit Map
3D Orbit Map
Orbit Altitude Analysis Chart
Orbit Inclination Analysis Chart
Orbit Comprehensive Analysis Chart
View Comprehensive Chart